Regional Weather Roundup
Issued by NWS

Home | Current Version | Previous Version | Graphics & Text | Print | Product List | Glossary Off
Versions: 1 2 3 4 5 6 7 8 9 10 11 12 13 14 15 16 17 18 19 20 21 22 23 24 25 26 27 28 29 30 31 32 33 34 35 36 37 38 39 40 41 42 43 44 45 46

000
ASUS43 KDMX 211607
RWRIA

WEATHER ROUNDUP FOR IOWA
NATIONAL WEATHER SERVICE DES MOINES IA
1100 AM CDT TUE OCT 21 2014

NOTE: "FAIR" INDICATES FEW OR NO CLOUDS BELOW 12,000 FEET WITH NO
SIGNIFICANT WEATHER AND/OR OBSTRUCTIONS TO VISIBILITY.

* - THESE STATIONS ARE NOT NWS STATIONS...THUS NOT UNDER NWS
QUALITY CONTROL.  THEY ALSO DO NOT REPORT WEATHER SUCH
AS PRECIPITATION OR FOG.

IAZ001>003-012>014-020>022-031>034-043>046-211700-
   NORTHWEST IOWA

CITY           SKY/WX    TMP DP  RH WIND       PRES   REMARKS
CARROLL *      SUNNY     57  45  62 VRB6      30.14F
CHEROKEE *     SUNNY     61  46  59 SE8       30.12F
DENISON *      SUNNY     63  46  55 SE5       30.11F
LE MARS *      SUNNY     63  43  48 SE10      30.10F
ORANGE CITY *  SUNNY     63  41  45 S7        30.10S
SHELDON *      SUNNY     61  43  51 SE12      30.09F
SIOUX CITY     SUNNY     59  43  55 SE8       30.10F
SPENCER        SUNNY     57  45  64 SE9       30.13F
STORM LAKE *   SUNNY     59  43  55 SE8       30.14S
$$

IAZ055>058-069>071-079>083-090>094-211700-
   SOUTHWEST IOWA

CITY           SKY/WX    TMP DP  RH WIND       PRES   REMARKS
ATLANTIC *     SUNNY     59  48  67 CALM      30.13F
AUDUBON *      SUNNY     61  45  55 SE5       30.15S
CLARINDA *     SUNNY     61  46  59 CALM      30.15F
COUNCIL BLFS * SUNNY     61  46  59 SE7       30.12S
CRESTON *      SUNNY     61  45  55 VRB5      30.15S
HARLAN  *      SUNNY     59  46  63 S5        30.17S
LAMONI         SUNNY     60  48  64 CALM      30.15S
RED OAK *      SUNNY     63  46  55 CALM      30.14S
SHENANDOAH *   SUNNY     64  45  48 SE5       30.14F
$$

IAZ047>049-059>061-072>074-084-211700-
   CENTRAL IOWA

CITY           SKY/WX    TMP DP  RH WIND       PRES   REMARKS
AMES           SUNNY     56  44  64 SE8       30.16F
ANKENY *       SUNNY     57  45  62 SE7       30.16S
CHARITON *     SUNNY     59  46  63 E8        30.16S
DES MOINES     SUNNY     57  44  62 E7        30.16S
GRINNELL*      SUNNY     55  41  58 E12       30.18S
KNOXVILLE *    SUNNY     55  43  62 E10       30.16S
MARSHALLTOWN   SUNNY     54  42  64 E14       30.17F
PELLA *        SUNNY     57  45  62 SE9       30.18F
PERRY *          N/A     57  45  62 E5        30.16S
$$

IAZ004>006-015-016-023>025-035-036-211700-
   NORTH CENTRAL IOWA

CITY           SKY/WX    TMP DP  RH WIND       PRES   REMARKS
ALGONA *       SUNNY     55  45  67 SE8       30.16S
CLARION *      SUNNY     57  43  58 SE10G16   30.16F
ESTHERVILLE    SUNNY     53  43  68 SE9       30.14F
FORT DODGE *   SUNNY     55  46  71 SE6       30.16F
MASON CITY     SUNNY     53  42  66 SE10      30.20S
FOREST CITY *  SUNNY     54  43  66 SE9       30.17F
IOWA FALLS *     N/A     55  43  62 SE8       30.19S
$$

IAZ007>011-017>019-026>030-037>042-050>054-066-211700-
   NORTHEAST IOWA

CITY           SKY/WX    TMP DP  RH WIND       PRES   REMARKS
CEDAR RAPIDS   SUNNY     53  41  63 E13       30.19S
CHARLES CITY * SUNNY     52  41  66 VRB7G14   30.20S
CLINTON *      SUNNY     52  39  62 N10       30.23S
DECORAH *      SUNNY     48  39  71 VRB6      30.21S
DUBUQUE        SUNNY     50  40  68 MISG      30.21S
MONTICELLO *   SUNNY     52  41  66 E8        30.20F
OELWEIN *      SUNNY     52  39  62 E10       30.21S
WATERLOO       SUNNY     54  42  64 SE10      30.19F
$$

IAZ064-065-067-068-078-211700-
   EAST CENTRAL IOWA

CITY           SKY/WX    TMP DP  RH WIND       PRES   REMARKS
DAVENPORT      SUNNY     53  39  59 NE12      30.21R
IOWA CITY      SUNNY     55  43  63 NE7       30.21S
MT. PLEASANT * SUNNY     55  41  58 NE9       30.19S
MUSCATINE *    SUNNY     55  41  58 E12       30.21R
QUAD CITIES    SUNNY     54  41  61 E8        30.20R
$$

IAZ062-063-075>077-085>089-095>099-211700-
   SOUTHEAST IOWA

CITY           SKY/WX    TMP DP  RH WIND       PRES   REMARKS
BURLINGTON     SUNNY     55  45  68 E10       30.18S
FAIRFIELD *    SUNNY     55  43  62 E9        30.19R
FORT MADISON * SUNNY     57  45  62 E8        30.19S
KEOKUK *       SUNNY     57  43  58 E12       30.18R
OSKALOOSA *      N/A     57  43  58 E13       30.18S
CENTERVILLE *  SUNNY     57  45  62 E7        30.17S
OTTUMWA        SUNNY     56  44  64 SE10      30.17S
WASHINGTON *   SUNNY     55  41  58 E10       30.20R
$$

ABBREVIATIONS USED IN REMARKS
   TC - TEMPERATURES IN CELSIUS
  WCI - WIND CHILL INDEX
   HX - HEAT INDEX
  VSB - VISIBILITY
$$




USA.gov is the U.S. government's official web portal to all federal, state and local government web resources and services.